| time (UTC) | temp F | wind direction | speed MPH | gust MPH | rain 1hr in | rain 24hr in | rain mn in | humidity % | barometer mb |
| 20260510153114 | 53 | 46 | 4.0 | 11.0 | 0.00 | 0.03 | 0.03 | 61 | 1016.2 |
| 20260510152300 | 53 | 6 | 4.0 | 11.0 | 0.00 | 0.03 | 0.03 | 60 | 1016.8 |
| 20260510151800 | 54 | 56 | 4.0 | 10.0 | 0.00 | 0.03 | 0.03 | 59 | 1016.7 |
| 20260510151300 | 54 | 71 | 4.0 | 10.0 | 0.00 | 0.03 | 0.03 | 59 | 1015.8 |
| 20260510151146 | 53 | 63 | 4.0 | 12.0 | 0.01 | 0.03 | 0.03 | 59 | 1015.7 |
| 20260510150300 | 53 | 72 | 4.0 | 12.0 | 0.01 | 0.03 | 0.03 | 61 | 1015.5 |
| 20260510150109 | 53 | 140 | 4.0 | 11.0 | 0.01 | 0.03 | 0.03 | 63 | 1016.3 |
| 20260510145300 | 53 | 8 | 4.0 | 10.0 | 0.01 | 0.03 | 0.03 | 63 | 1016.8 |
| 20260510144801 | 54 | 63 | 4.0 | 11.0 | 0.03 | 0.03 | 0.03 | 63 | 1016.6 |
| 20260510144357 | 53 | 299 | 4.0 | 11.0 | 0.03 | 0.03 | 0.03 | 62 | 1015.7 |
| 20260510143258 | 54 | 26 | 4.0 | 15.0 | 0.03 | 0.03 | 0.03 | 61 | 1016.5 |
| 20260510142759 | 53 | 11 | 4.0 | 12.0 | 0.03 | 0.03 | 0.03 | 61 | 1016.8 |
| 20260510142354 | 54 | 47 | 4.0 | 12.0 | 0.03 | 0.03 | 0.03 | 61 | 1017.0 |
| 20260510141629 | 55 | 328 | 5.0 | 13.0 | 0.03 | 0.03 | 0.02 | 60 | 1015.9 |
| 20260510140759 | 55 | 96 | 4.0 | 11.0 | 0.02 | 0.02 | 0.02 | 62 | 1015.9 |
| 20260510140300 | 55 | 67 | 4.0 | 12.0 | 0.02 | 0.02 | 0.02 | 61 | 1017.2 |
| 20260510135801 | 55 | 59 | 5.0 | 15.0 | 0.02 | 0.02 | 0.02 | 61 | 1015.5 |
| 20260510135300 | 55 | 349 | 5.0 | 15.0 | 0.02 | 0.02 | 0.01 | 62 | 1015.8 |
| 20260510134800 | 55 | 83 | 5.0 | 15.0 | 0.00 | 0.00 | 0.00 | 61 | 1016.2 |
| 20260510134259 | 55 | 94 | 5.0 | 13.0 | 0.00 | 0.00 | 0.00 | 60 | 1015.9 |
| 20260510133758 | 55 | 74 | 5.0 | 13.0 | 0.00 | 0.00 | 0.00 | 59 | 1016.2 |
| 20260510133300 | 55 | 353 | 4.0 | 11.0 | 0.00 | 0.00 | 0.00 | 60 | 1015.1 |
| 20260510132757 | 54 | 36 | 4.0 | 11.0 | 0.00 | 0.00 | 0.00 | 59 | 1016.4 |
| 20260510132257 | 54 | 73 | 4.0 | 11.0 | 0.00 | 0.00 | 0.00 | 63 | 1015.9 |
| 20260510131757 | 54 | 186 | 4.0 | 10.0 | 0.00 | 0.00 | 0.00 | 63 | 1016.9 |
| 20260510131250 | 54 | 39 | 3.0 | 10.0 | 0.00 | 0.00 | 0.00 | 63 | 1017.1 |
| 20260510130749 | 54 | 334 | 4.0 | 13.0 | 0.00 | 0.00 | 0.00 | 62 | 1016.7 |
| 20260510130250 | 54 | 265 | 5.0 | 13.0 | 0.00 | 0.00 | 0.00 | 62 | 1017.4 |
| 20260510125750 | 55 | 61 | 5.0 | 12.0 | 0.00 | 0.00 | 0.00 | 63 | 1017.3 |
| 20260510125251 | 55 | 24 | 5.0 | 12.0 | 0.00 | 0.00 | 0.00 | 61 | 1015.7 |
| 20260510124750 | 54 | 74 | 4.0 | 11.0 | 0.00 | 0.00 | 0.00 | 63 | 1016.6 |
| 20260510124744 | 54 | 79 | 4.0 | 11.0 | 0.00 | 0.00 | 0.00 | 63 | 1016.7 |
| 20260510123248 | 54 | 108 | 5.0 | 13.0 | 0.00 | 0.00 | 0.00 | 64 | 1017.2 |
| 20260510122749 | 55 | 35 | 5.0 | 15.0 | 0.00 | 0.00 | 0.00 | 64 | 1016.8 |
| 20260510122247 | 54 | 268 | 5.0 | 15.0 | 0.00 | 0.00 | 0.00 | 65 | 1016.5 |
| 20260510121746 | 54 | 63 | 5.0 | 12.0 | 0.00 | 0.00 | 0.00 | 66 | 1017.4 |
| 20260510121246 | 55 | 286 | 4.0 | 12.0 | 0.00 | 0.00 | 0.00 | 65 | 1017.2 |
| 20260510120746 | 55 | 341 | 4.0 | 12.0 | 0.00 | 0.00 | 0.00 | 64 | 1015.5 |
| 20260510120248 | 54 | 315 | 4.0 | 13.0 | 0.00 | 0.00 | 0.00 | 62 | 1016.6 |
| 20260510115745 | 54 | 8 | 4.0 | 13.0 | 0.00 | 0.00 | 0.00 | 62 | 1017.1 |
| 20260510115340 | 54 | 109 | 4.0 | 13.0 | 0.00 | 0.00 | 0.00 | 67 | 1016.3 |
| 20260510114245 | 54 | 3 | 4.0 | 13.0 | 0.00 | 0.00 | 0.00 | 64 | 1017.0 |
| 20260510113745 | 53 | 325 | 4.0 | 13.0 | 0.00 | 0.00 | 0.00 | 65 | 1015.9 |
| 20260510113246 | 53 | 349 | 4.0 | 11.0 | 0.00 | 0.00 | 0.00 | 67 | 1017.4 |
| 20260510112745 | 53 | 82 | 4.0 | 11.0 | 0.00 | 0.00 | 0.00 | 69 | 1017.4 |
| 20260510112244 | 53 | 64 | 4.0 | 11.0 | 0.00 | 0.00 | 0.00 | 68 | 1017.6 |
| 20260510111745 | 53 | 318 | 4.0 | 11.0 | 0.00 | 0.00 | 0.00 | 69 | 1017.9 |
| 20260510111244 | 53 | 105 | 4.0 | 11.0 | 0.00 | 0.00 | 0.00 | 68 | 1018.2 |
| 20260510110840 | 53 | 53 | 4.0 | 10.0 | 0.00 | 0.00 | 0.00 | 67 | 1017.8 |
| 20260510105744 | 53 | 79 | 4.0 | 11.0 | 0.00 | 0.00 | 0.00 | 70 | 1017.7 |
| 20260510105245 | 53 | 62 | 4.0 | 12.0 | 0.00 | 0.00 | 0.00 | 71 | 1018.1 |
| 20260510104745 | 53 | 63 | 4.0 | 12.0 | 0.00 | 0.00 | 0.00 | 71 | 1017.9 |
| 20260510104245 | 53 | 5 | 4.0 | 10.0 | 0.00 | 0.00 | 0.00 | 70 | 1017.6 |
| 20260510103745 | 53 | 67 | 4.0 | 12.0 | 0.00 | 0.00 | 0.00 | 72 | 1017.3 |
| 20260510103244 | 53 | 341 | 5.0 | 13.0 | 0.00 | 0.00 | 0.00 | 72 | 1017.9 |
| 20260510102747 | 53 | 79 | 4.0 | 13.0 | 0.00 | 0.00 | 0.00 | 71 | 1017.7 |
| 20260510102241 | 53 | 7 | 4.0 | 12.0 | 0.00 | 0.00 | 0.00 | 72 | 1017.1 |
| 20260510101740 | 52 | 70 | 4.0 | 12.0 | 0.00 | 0.00 | 0.00 | 72 | 1017.6 |
| 20260510101241 | 52 | 81 | 4.0 | 10.0 | 0.00 | 0.00 | 0.00 | 73 | 1018.2 |
| 20260510100740 | 52 | 86 | 4.0 | 11.0 | 0.00 | 0.00 | 0.00 | 73 | 1018.2 |
| 20260510100240 | 52 | 298 | 4.0 | 12.0 | 0.00 | 0.00 | 0.00 | 74 | 1017.9 |
| 20260510095740 | 52 | 52 | 3.0 | 14.0 | 0.00 | 0.00 | 0.00 | 75 | 1018.1 |
| 20260510095240 | 52 | 321 | 4.0 | 14.0 | 0.00 | 0.00 | 0.00 | 75 | 1018.0 |
| 20260510094740 | 52 | 18 | 4.0 | 13.0 | 0.00 | 0.00 | 0.00 | 76 | 1017.9 |
| 20260510094240 | 51 | 151 | 4.0 | 13.0 | 0.00 | 0.00 | 0.00 | 78 | 1017.9 |
| 20260510093741 | 51 | 3 | 3.0 | 10.0 | 0.00 | 0.00 | 0.00 | 81 | 1018.2 |
| 20260510093240 | 50 | 356 | 3.0 | 13.0 | 0.00 | 0.00 | 0.00 | 83 | 1018.6 |
| 20260510092740 | 51 | 29 | 4.0 | 13.0 | 0.00 | 0.00 | 0.00 | 82 | 1018.9 |
| 20260510092242 | 51 | 145 | 4.0 | 13.0 | 0.00 | 0.00 | 0.00 | 80 | 1019.1 |
| 20260510091740 | 51 | 10 | 4.0 | 13.0 | 0.00 | 0.00 | 0.00 | 78 | 1018.7 |
| 20260510091240 | 52 | 331 | 4.0 | 12.0 | 0.00 | 0.00 | 0.00 | 78 | 1018.5 |
| 20260510090742 | 52 | 7 | 4.0 | 12.0 | 0.00 | 0.00 | 0.00 | 78 | 1018.4 |
| 20260510090242 | 51 | 346 | 4.0 | 10.0 | 0.00 | 0.00 | 0.00 | 79 | 1018.2 |
| 20260510085741 | 51 | 48 | 4.0 | 13.0 | 0.00 | 0.00 | 0.00 | 79 | 1018.3 |
| 20260510085239 | 51 | 8 | 4.0 | 13.0 | 0.00 | 0.00 | 0.00 | 80 | 1018.6 |
| 20260510084739 | 51 | 353 | 3.0 | 11.0 | 0.00 | 0.00 | 0.00 | 80 | 1018.8 |
| 20260510084553 | 51 | 323 | 4.0 | 11.0 | 0.00 | 0.00 | 0.00 | 80 | 1018.7 |
| 20260510083740 | 51 | 334 | 3.0 | 11.0 | 0.00 | 0.00 | 0.00 | 80 | 1018.7 |
| 20260510083239 | 51 | 73 | 3.0 | 10.0 | 0.00 | 0.00 | 0.00 | 81 | 1018.7 |
| 20260510082738 | 51 | 90 | 3.0 | 11.0 | 0.00 | 0.00 | 0.00 | 82 | 1018.8 |
| 20260510082551 | 51 | 76 | 3.0 | 11.0 | 0.00 | 0.00 | 0.00 | 82 | 1018.9 |
| 20260510081735 | 50 | 64 | 3.0 | 13.0 | 0.00 | 0.00 | 0.00 | 82 | 1018.9 |
| 20260510081549 | 50 | 17 | 3.0 | 13.0 | 0.00 | 0.00 | 0.00 | 82 | 1019.0 |
| 20260510080734 | 50 | 20 | 4.0 | 13.0 | 0.00 | 0.00 | 0.00 | 82 | 1019.0 |
| 20260510080233 | 50 | 14 | 4.0 | 13.0 | 0.00 | 0.00 | 0.00 | 82 | 1018.8 |
| 20260510075735 | 50 | 27 | 4.0 | 11.0 | 0.00 | 0.00 | 0.00 | 83 | 1018.8 |
| 20260510075235 | 50 | 83 | 4.0 | 11.0 | 0.00 | 0.00 | 0.00 | 84 | 1018.8 |
| 20260510074834 | 50 | 38 | 4.0 | 11.0 | 0.00 | 0.00 | 0.00 | 84 | 1018.8 |
| 20260510073736 | 50 | 38 | 3.0 | 14.0 | 0.00 | 0.00 | 0.00 | 85 | 1018.8 |
| 20260510073235 | 50 | 62 | 4.0 | 14.0 | 0.00 | 0.00 | 0.00 | 85 | 1018.6 |
| 20260510072732 | 50 | 67 | 4.0 | 13.0 | 0.00 | 0.00 | 0.00 | 85 | 1018.8 |
| 20260510072233 | 50 | 309 | 4.0 | 13.0 | 0.00 | 0.00 | 0.00 | 86 | 1018.6 |
| 20260510071733 | 50 | 52 | 4.0 | 13.0 | 0.00 | 0.00 | 0.00 | 86 | 1018.6 |
| 20260510071231 | 50 | 284 | 4.0 | 11.0 | 0.00 | 0.00 | 0.00 | 86 | 1018.6 |
| 20260510070731 | 50 | 158 | 4.0 | 11.0 | 0.00 | 0.00 | 0.00 | 86 | 1018.5 |
| 20260510070231 | 50 | 52 | 4.0 | 11.0 | 0.00 | 0.00 | 0.00 | 86 | 1018.4 |
| 20260510065730 | 50 | 347 | 4.0 | 10.0 | 0.00 | 0.00 | 0.00 | 86 | 1018.5 |
| 20260510065231 | 50 | 73 | 4.0 | 11.0 | 0.00 | 0.00 | 0.00 | 87 | 1018.5 |
| 20260510064730 | 50 | 284 | 4.0 | 11.0 | 0.00 | 0.00 | 0.00 | 87 | 1018.5 |
| 20260510064550 | 50 | 63 | 4.0 | 11.0 | 0.00 | 0.00 | 0.00 | 87 | 1018.5 |
| 20260510063731 | 50 | 54 | 3.0 | 10.0 | 0.00 | 0.00 | 0.00 | 87 | 1018.5 |
| 20260510063231 | 50 | 65 | 4.0 | 15.0 | 0.00 | 0.00 | 0.00 | 88 | 1018.4 |
| 20260510063041 | 50 | 53 | 3.0 | 15.0 | 0.00 | 0.00 | 0.00 | 88 | 1018.3 |
| 20260510062232 | 50 | 30 | 3.0 | 12.0 | 0.00 | 0.00 | 0.00 | 89 | 1018.4 |
| 20260510062047 | 50 | 270 | 3.0 | 10.0 | 0.00 | 0.00 | 0.00 | 89 | 1018.3 |
| 20260510061231 | 50 | 60 | 4.0 | 12.0 | 0.00 | 0.00 | 0.00 | 89 | 1018.2 |
| 20260510060730 | 50 | 307 | 4.0 | 12.0 | 0.00 | 0.00 | 0.00 | 89 | 1018.1 |
| 20260510060232 | 50 | 338 | 3.0 | 11.0 | 0.00 | 0.00 | 0.00 | 90 | 1018.1 |
| 20260510060042 | 50 | 320 | 4.0 | 11.0 | 0.00 | 0.00 | 0.00 | 90 | 1018.0 |
| 20260510055231 | 50 | 0 | 3.0 | 10.0 | 0.00 | 0.00 | 0.00 | 90 | 1018.0 |
| 20260510054731 | 50 | 20 | 4.0 | 10.0 | 0.00 | 0.00 | 0.00 | 90 | 1017.9 |
| 20260510054231 | 50 | 333 | 4.0 | 10.0 | 0.00 | 0.00 | 0.00 | 90 | 1017.9 |
| 20260510053731 | 50 | 63 | 3.0 | 10.0 | 0.00 | 0.00 | 0.00 | 91 | 1017.9 |
| 20260510053541 | 50 | 319 | 2.0 | 9.0 | 0.00 | 0.00 | 0.00 | 91 | 1017.9 |
| 20260510052731 | 50 | 19 | 2.0 | 9.0 | 0.00 | 0.00 | 0.00 | 92 | 1018.0 |
| 20260510052232 | 50 | 349 | 2.0 | 10.0 | 0.00 | 0.00 | 0.00 | 92 | 1018.0 |
| 20260510051731 | 49 | 339 | 3.0 | 10.0 | 0.00 | 0.00 | 0.00 | 92 | 1018.1 |
| 20260510051232 | 49 | 89 | 3.0 | 10.0 | 0.00 | 0.00 | 0.00 | 93 | 1018.2 |
| 20260510050859 | 49 | 336 | 3.0 | 10.0 | 0.00 | 0.00 | 0.00 | 94 | 1018.4 |
| 20260510045731 | 49 | 329 | 2.0 | 9.0 | 0.00 | 0.00 | 0.00 | 95 | 1018.4 |
| 20260510045542 | 49 | 5 | 2.0 | 6.0 | 0.00 | 0.00 | 0.00 | 95 | 1018.4 |
| 20260510044732 | 48 | 37 | 2.0 | 6.0 | 0.00 | 0.00 | 0.00 | 96 | 1018.5 |
| 20260510044232 | 48 | 340 | 2.0 | 6.0 | 0.00 | 0.00 | 0.00 | 96 | 1018.5 |
| 20260510043732 | 48 | 0 | 1.0 | 7.0 | 0.00 | 0.00 | 0.00 | 96 | 1018.4 |
| 20260510043554 | 48 | 303 | 2.0 | 7.0 | 0.00 | 0.00 | 0.00 | 96 | 1018.3 |
| 20260510042732 | 48 | 353 | 2.0 | 6.0 | 0.00 | 0.00 | 0.00 | 96 | 1018.5 |
| 20260510042233 | 48 | 52 | 2.0 | 7.0 | 0.00 | 0.00 | 0.00 | 96 | 1018.6 |
| 20260510041733 | 48 | 0 | 2.0 | 7.0 | 0.00 | 0.00 | 0.00 | 96 | 1018.4 |
| 20260510041233 | 48 | 334 | 2.0 | 6.0 | 0.00 | 0.00 | 0.00 | 96 | 1018.5 |
| 20260510040732 | 48 | 310 | 2.0 | 7.0 | 0.00 | 0.00 | 0.00 | 96 | 1018.6 |
| 20260510040232 | 48 | 292 | 2.0 | 7.0 | 0.00 | 0.00 | 0.00 | 96 | 1018.7 |
| 20260510040042 | 48 | 0 | 2.0 | 6.0 | 0.00 | 0.00 | 0.00 | 96 | 1018.6 |
| 20260510035230 | 48 | 320 | 2.0 | 7.0 | 0.00 | 0.00 | 0.00 | 96 | 1018.6 |
| 20260510034730 | 48 | 30 | 1.0 | 7.0 | 0.00 | 0.00 | 0.00 | 95 | 1018.7 |
| 20260510034230 | 48 | 202 | 2.0 | 7.0 | 0.00 | 0.00 | 0.00 | 95 | 1018.7 |
| 20260510034045 | 48 | 349 | 3.0 | 7.0 | 0.00 | 0.00 | 0.00 | 95 | 1018.7 |
| 20260510033230 | 48 | 343 | 2.0 | 7.0 | 0.00 | 0.00 | 0.00 | 95 | 1018.8 |
| 20260510032731 | 48 | 349 | 2.0 | 7.0 | 0.00 | 0.00 | 0.00 | 95 | 1018.8 |
| 20260510032540 | 49 | 20 | 2.0 | 8.0 | 0.00 | 0.00 | 0.00 | 95 | 1018.9 |
| 20260510031731 | 49 | 148 | 2.0 | 8.0 | 0.00 | 0.00 | 0.00 | 95 | 1018.8 |
| 20260510031229 | 49 | 28 | 2.0 | 8.0 | 0.00 | 0.00 | 0.00 | 95 | 1018.8 |
| 20260510031041 | 49 | 39 | 2.0 | 10.0 | 0.00 | 0.00 | 0.00 | 94 | 1018.8 |
| 20260510030228 | 49 | 8 | 2.0 | 10.0 | 0.00 | 0.00 | 0.00 | 94 | 1018.8 |
| 20260510025728 | 49 | 37 | 2.0 | 7.0 | 0.00 | 0.00 | 0.00 | 94 | 1018.8 |
| 20260510025228 | 49 | 322 | 2.0 | 8.0 | 0.00 | 0.00 | 0.00 | 94 | 1018.8 |
| 20260510024728 | 49 | 61 | 2.0 | 8.0 | 0.00 | 0.00 | 0.00 | 94 | 1018.9 |
| 20260510024228 | 49 | 62 | 2.0 | 10.0 | 0.00 | 0.00 | 0.00 | 94 | 1018.8 |
| 20260510023727 | 49 | 6 | 2.0 | 10.0 | 0.00 | 0.00 | 0.00 | 94 | 1018.8 |
| 20260510023226 | 49 | 339 | 2.0 | 9.0 | 0.00 | 0.00 | 0.00 | 94 | 1018.9 |
| 20260510022727 | 49 | 11 | 2.0 | 9.0 | 0.00 | 0.00 | 0.00 | 95 | 1019.0 |
| 20260510022227 | 49 | 350 | 2.0 | 9.0 | 0.00 | 0.00 | 0.00 | 95 | 1019.1 |
| 20260510021727 | 49 | 340 | 2.0 | 9.0 | 0.00 | 0.00 | 0.00 | 95 | 1019.0 |
| 20260510021226 | 49 | 31 | 2.0 | 8.0 | 0.00 | 0.00 | 0.00 | 95 | 1019.1 |
| 20260510020726 | 49 | 304 | 2.0 | 8.0 | 0.00 | 0.00 | 0.00 | 96 | 1019.0 |
| 20260510020226 | 48 | 321 | 2.0 | 8.0 | 0.00 | 0.00 | 0.00 | 96 | 1019.0 |
| 20260510015726 | 48 | 350 | 2.0 | 7.0 | 0.00 | 0.00 | 0.00 | 97 | 1019.0 |
| 20260510015226 | 48 | 4 | 2.0 | 6.0 | 0.00 | 0.00 | 0.00 | 97 | 1019.1 |
| 20260510015038 | 48 | 252 | 2.0 | 6.0 | 0.00 | 0.00 | 0.00 | 97 | 1019.1 |
| 20260510014226 | 48 | 336 | 2.0 | 6.0 | 0.00 | 0.00 | 0.00 | 97 | 1019.1 |
| 20260510013726 | 47 | 320 | 2.0 | 5.0 | 0.00 | 0.00 | 0.00 | 97 | 1019.1 |
| 20260510013226 | 47 | 340 | 1.0 | 5.0 | 0.00 | 0.00 | 0.00 | 97 | 1019.2 |
| 20260510012726 | 47 | 0 | 1.0 | 4.0 | 0.00 | 0.00 | 0.00 | 97 | 1019.3 |
| 20260510012544 | 47 | 0 | 1.0 | 6.0 | 0.00 | 0.00 | 0.00 | 96 | 1019.3 |
| 20260510012040 | 47 | 334 | 2.0 | 6.0 | 0.00 | 0.00 | 0.00 | 96 | 1019.4 |
| 20260510011222 | 47 | 310 | 2.0 | 6.0 | 0.00 | 0.00 | 0.00 | 96 | 1019.4 |
| 20260510011036 | 47 | 327 | 2.0 | 5.0 | 0.00 | 0.00 | 0.00 | 96 | 1019.2 |
| 20260510010223 | 47 | 327 | 2.0 | 5.0 | 0.00 | 0.00 | 0.00 | 96 | 1019.4 |
| 20260510005721 | 47 | 355 | 2.0 | 5.0 | 0.00 | 0.00 | 0.00 | 96 | 1019.4 |
| 20260510005221 | 47 | 310 | 2.0 | 5.0 | 0.00 | 0.00 | 0.00 | 96 | 1019.3 |
| 20260510004719 | 47 | 23 | 2.0 | 5.0 | 0.00 | 0.00 | 0.00 | 96 | 1019.3 |
| 20260510004219 | 48 | 337 | 2.0 | 8.0 | 0.00 | 0.00 | 0.00 | 96 | 1019.3 |
| 20260510003719 | 48 | 333 | 2.0 | 8.0 | 0.00 | 0.00 | 0.00 | 96 | 1019.3 |
| 20260510003604 | 48 | 339 | 2.0 | 6.0 | 0.00 | 0.00 | 0.00 | 95 | 1019.4 |
| 20260510003032 | 48 | 342 | 2.0 | 7.0 | 0.00 | 0.00 | 0.00 | 95 | 1019.5 |
| 20260510002215 | 48 | 317 | 2.0 | 7.0 | 0.00 | 0.00 | 0.00 | 95 | 1019.4 |
| 20260510001716 | 48 | 114 | 2.0 | 5.0 | 0.00 | 0.00 | 0.00 | 95 | 1019.6 |
| 20260510001214 | 48 | 1 | 1.0 | 5.0 | 0.00 | 0.00 | 0.00 | 95 | 1019.6 |
| 20260510000715 | 48 | 329 | 2.0 | 5.0 | 0.00 | 0.00 | 0.00 | 95 | 1019.7 |
| 20260510000213 | 48 | 55 | 2.0 | 6.0 | 0.00 | 0.00 | 0.00 | 95 | 1019.7 |
| 20260510000024 | 48 | 341 | 2.0 | 6.0 | 0.00 | 0.00 | 0.00 | 95 | 1019.7 |
| 20260509235528 | 48 | 325 | 1.0 | 4.0 | 0.00 | 0.00 | 0.00 | 95 | 1019.8 |
| 20260509235027 | 48 | 149 | 1.0 | 5.0 | 0.00 | 0.00 | 0.00 | 95 | 1019.8 |
| 20260509234212 | 49 | 340 | 1.0 | 5.0 | 0.00 | 0.00 | 0.00 | 95 | 1019.9 |
| 20260509233711 | 49 | 0 | 1.0 | 5.0 | 0.00 | 0.00 | 0.00 | 95 | 1020.0 |
| 20260509233224 | 49 | 0 | 1.0 | 5.0 | 0.00 | 0.00 | 0.00 | 94 | 1020.0 |
| 20260509232712 | 49 | 0 | 1.0 | 6.0 | 0.00 | 0.00 | 0.00 | 94 | 1019.9 |
| 20260509232213 | 49 | 281 | 1.0 | 6.0 | 0.00 | 0.00 | 0.00 | 94 | 1019.8 |
| 20260509231713 | 49 | 35 | 1.0 | 7.0 | 0.00 | 0.00 | 0.00 | 94 | 1019.7 |
| 20260509231213 | 49 | 0 | 1.0 | 7.0 | 0.00 | 0.00 | 0.00 | 94 | 1019.7 |
| 20260509230819 | 49 | 9 | 1.0 | 6.0 | 0.00 | 0.00 | 0.00 | 94 | 1019.7 |
| 20260509225812 | 49 | 40 | 2.0 | 9.0 | 0.00 | 0.00 | 0.00 | 93 | 1019.7 |
| 20260509224705 | 50 | 1 | 2.0 | 9.0 | 0.00 | 0.00 | 0.00 | 93 | 1019.5 |
| 20260509224205 | 50 | 124 | 3.0 | 9.0 | 0.00 | 0.00 | 0.00 | 93 | 1019.4 |
| 20260509223705 | 50 | 335 | 2.0 | 8.0 | 0.00 | 0.00 | 0.00 | 93 | 1019.4 |
| 20260509223206 | 50 | 320 | 2.0 | 10.0 | 0.00 | 0.00 | 0.00 | 93 | 1019.4 |
| 20260509222705 | 50 | 327 | 2.0 | 10.0 | 0.00 | 0.00 | 0.00 | 93 | 1019.4 |
| 20260509222205 | 50 | 57 | 2.0 | 10.0 | 0.00 | 0.00 | 0.00 | 93 | 1019.4 |
| 20260509221704 | 50 | 11 | 2.0 | 9.0 | 0.00 | 0.00 | 0.00 | 92 | 1019.4 |
| 20260509221515 | 50 | 0 | 2.0 | 7.0 | 0.00 | 0.00 | 0.00 | 92 | 1019.4 |
| 20260509220704 | 50 | 83 | 2.0 | 7.0 | 0.00 | 0.00 | 0.00 | 92 | 1019.5 |
| 20260509220159 | 50 | 29 | 2.0 | 7.0 | 0.00 | 0.00 | 0.00 | 92 | 1019.3 |
| 20260509215700 | 50 | 357 | 2.0 | 8.0 | 0.00 | 0.00 | 0.00 | 92 | 1019.2 |
| 20260509215200 | 50 | 40 | 2.0 | 8.0 | 0.00 | 0.00 | 0.00 | 92 | 1019.2 |
| 20260509214700 | 50 | 19 | 2.0 | 7.0 | 0.00 | 0.00 | 0.00 | 92 | 1019.2 |
| 20260509214201 | 50 | 22 | 2.0 | 7.0 | 0.00 | 0.00 | 0.00 | 92 | 1019.2 |
| 20260509214016 | 50 | 61 | 2.0 | 8.0 | 0.00 | 0.00 | 0.00 | 91 | 1019.3 |
| 20260509213202 | 50 | 41 | 2.0 | 8.0 | 0.00 | 0.00 | 0.00 | 91 | 1019.2 |
| 20260509212700 | 51 | 74 | 2.0 | 8.0 | 0.00 | 0.00 | 0.00 | 91 | 1019.2 |
| 20260509212201 | 51 | 4 | 2.0 | 8.0 | 0.00 | 0.00 | 0.00 | 91 | 1019.2 |
| 20260509211700 | 51 | 349 | 2.0 | 9.0 | 0.00 | 0.00 | 0.00 | 91 | 1019.2 |
| 20260509211159 | 51 | 64 | 2.0 | 9.0 | 0.00 | 0.00 | 0.00 | 90 | 1019.1 |
| 20260509210702 | 51 | 169 | 2.0 | 8.0 | 0.00 | 0.00 | 0.00 | 89 | 1019.1 |
| 20260509210156 | 51 | 81 | 2.0 | 8.0 | 0.00 | 0.00 | 0.00 | 89 | 1019.2 |
| 20260509210009 | 51 | 327 | 2.0 | 8.0 | 0.00 | 0.00 | 0.00 | 88 | 1019.3 |
| 20260509205640 | 52 | 134 | 3.0 | 7.0 | 0.00 | 0.00 | 0.00 | 87 | 1019.3 |
| 20260509204157 | 52 | 318 | 2.0 | 6.0 | 0.00 | 0.00 | 0.00 | 84 | 1019.3 |
| 20260509203656 | 53 | 6 | 2.0 | 8.0 | 0.00 | 0.00 | 0.00 | 83 | 1019.4 |
| 20260509203516 | 53 | 334 | 2.0 | 8.0 | 0.00 | 0.00 | 0.00 | 80 | 1019.4 |
| 20260509202652 | 53 | 328 | 2.0 | 7.0 | 0.00 | 0.00 | 0.00 | 78 | 1019.4 |
| 20260509202153 | 54 | 332 | 2.0 | 7.0 | 0.00 | 0.00 | 0.00 | 76 | 1019.3 |
| 20260509202022 | 54 | 342 | 2.0 | 6.0 | 0.00 | 0.00 | 0.00 | 74 | 1019.2 |
| 20260509201153 | 54 | 342 | 2.0 | 6.0 | 0.00 | 0.00 | 0.00 | 71 | 1019.2 |
| 20260509200652 | 55 | 0 | 1.0 | 7.0 | 0.00 | 0.00 | 0.00 | 66 | 1019.2 |
| 20260509200152 | 55 | 290 | 1.0 | 7.0 | 0.00 | 0.00 | 0.00 | 64 | 1019.2 |
| 20260509200021 | 55 | 0 | 2.0 | 7.0 | 0.00 | 0.00 | 0.00 | 64 | 1019.1 |
| 20260509195506 | 55 | 31 | 2.0 | 7.0 | 0.00 | 0.00 | 0.00 | 63 | 1018.9 |
| 20260509194650 | 55 | 347 | 2.0 | 9.0 | 0.00 | 0.00 | 0.00 | 61 | 1018.9 |
| 20260509194150 | 56 | 277 | 2.0 | 9.0 | 0.00 | 0.00 | 0.00 | 59 | 1018.8 |
| 20260509193651 | 56 | 341 | 1.0 | 9.0 | 0.00 | 0.00 | 0.00 | 58 | 1018.8 |
| 20260509193150 | 56 | 61 | 2.0 | 9.0 | 0.00 | 0.00 | 0.00 | 57 | 1018.8 |
| 20260509192650 | 57 | 36 | 2.0 | 9.0 | 0.00 | 0.00 | 0.00 | 55 | 1018.8 |
| 20260509192151 | 57 | 358 | 2.0 | 9.0 | 0.00 | 0.00 | 0.00 | 54 | 1018.7 |
| 20260509191650 | 57 | 327 | 2.0 | 6.0 | 0.00 | 0.00 | 0.00 | 53 | 1018.5 |
| 20260509191150 | 57 | 288 | 2.0 | 6.0 | 0.00 | 0.00 | 0.00 | 53 | 1018.5 |
| 20260509190646 | 57 | 20 | 2.0 | 7.0 | 0.00 | 0.00 | 0.00 | 53 | 1018.3 |
| 20260509190144 | 58 | 69 | 2.0 | 7.0 | 0.00 | 0.00 | 0.00 | 52 | 1018.4 |
| 20260509190016 | 58 | 61 | 2.0 | 6.0 | 0.00 | 0.00 | 0.00 | 52 | 1018.4 |
| 20260509185456 | 58 | 87 | 2.0 | 6.0 | 0.00 | 0.00 | 0.00 | 51 | 1018.5 |
| 20260509184645 | 59 | 244 | 2.0 | 7.0 | 0.00 | 0.00 | 0.00 | 51 | 1018.4 |
| 20260509184142 | 59 | 346 | 2.0 | 9.0 | 0.00 | 0.00 | 0.00 | 51 | 1018.2 |
| 20260509183642 | 60 | 86 | 2.0 | 9.0 | 0.00 | 0.00 | 0.00 | 50 | 1018.1 |
| 20260509183142 | 60 | 349 | 2.0 | 8.0 | 0.00 | 0.00 | 0.00 | 50 | 1018.2 |
| 20260509182643 | 60 | 227 | 2.0 | 9.0 | 0.00 | 0.00 | 0.00 | 49 | 1018.0 |
| 20260509182143 | 61 | 217 | 3.0 | 11.0 | 0.00 | 0.00 | 0.00 | 48 | 1017.8 |
| 20260509181643 | 61 | 193 | 4.0 | 11.0 | 0.00 | 0.00 | 0.00 | 47 | 1017.8 |
| 20260509181144 | 62 | 61 | 4.0 | 14.0 | 0.00 | 0.00 | 0.00 | 47 | 1017.7 |
| 20260509180639 | 62 | 56 | 5.0 | 14.0 | 0.00 | 0.00 | 0.00 | 47 | 1017.8 |
| 20260509180135 | 62 | 61 | 5.0 | 14.0 | 0.00 | 0.00 | 0.00 | 46 | 1017.7 |
| 20260509175636 | 62 | 162 | 5.0 | 13.0 | 0.00 | 0.00 | 0.00 | 46 | 1017.5 |
| 20260509175135 | 62 | 55 | 5.0 | 12.0 | 0.00 | 0.00 | 0.00 | 46 | 1017.5 |
| 20260509175020 | 62 | 57 | 6.0 | 13.0 | 0.00 | 0.00 | 0.00 | 45 | 1017.5 |
| 20260509174136 | 62 | 41 | 5.0 | 13.0 | 0.00 | 0.00 | 0.00 | 45 | 1017.4 |
| 20260509173637 | 62 | 58 | 5.0 | 13.0 | 0.00 | 0.00 | 0.00 | 45 | 1017.4 |
| 20260509173136 | 62 | 51 | 5.0 | 16.0 | 0.00 | 0.00 | 0.00 | 44 | 1017.6 |
| 20260509172636 | 63 | 54 | 5.0 | 16.0 | 0.00 | 0.00 | 0.00 | 43 | 1017.6 |
| 20260509172136 | 64 | 78 | 5.0 | 16.0 | 0.00 | 0.00 | 0.00 | 43 | 1017.4 |
| 20260509171636 | 64 | 44 | 4.0 | 14.0 | 0.00 | 0.00 | 0.00 | 43 | 1017.3 |
| 20260509171137 | 64 | 55 | 4.0 | 14.0 | 0.00 | 0.00 | 0.00 | 42 | 1016.9 |
| 20260509170633 | 64 | 52 | 3.0 | 14.0 | 0.00 | 0.00 | 0.00 | 43 | 1017.0 |
| 20260509170131 | 64 | 19 | 3.0 | 11.0 | 0.00 | 0.00 | 0.00 | 43 | 1016.9 |
| 20260509165639 | 64 | 5 | 4.0 | 13.0 | 0.00 | 0.00 | 0.00 | 42 | 1017.1 |
| 20260509165132 | 64 | 62 | 5.0 | 13.0 | 0.00 | 0.00 | 0.00 | 42 | 1017.1 |
| 20260509164632 | 64 | 83 | 4.0 | 12.0 | 0.00 | 0.00 | 0.00 | 43 | 1017.0 |
| 20260509164132 | 64 | 70 | 4.0 | 14.0 | 0.00 | 0.00 | 0.00 | 44 | 1017.1 |
| 20260509163727 | 64 | 135 | 4.0 | 14.0 | 0.00 | 0.00 | 0.00 | 43 | 1017.3 |
| 20260509162939 | 65 | 313 | 5.0 | 16.0 | 0.00 | 0.00 | 0.00 | 43 | 1017.2 |
| 20260509162131 | 65 | 76 | 5.0 | 16.0 | 0.00 | 0.00 | 0.00 | 43 | 1016.8 |
| 20260509161941 | 65 | 19 | 5.0 | 12.0 | 0.00 | 0.00 | 0.00 | 43 | 1016.7 |
| 20260509161441 | 65 | 113 | 4.0 | 11.0 | 0.00 | 0.00 | 0.00 | 43 | 1016.5 |
| 20260509160731 | 65 | 79 | 4.0 | 14.0 | 0.00 | 0.00 | 0.00 | 43 | 1016.4 |
| 20260509155632 | 66 | 48 | 4.0 | 15.0 | 0.00 | 0.00 | 0.00 | 43 | 1016.6 |
| 20260509155131 | 66 | 101 | 4.0 | 12.0 | 0.00 | 0.00 | 0.00 | 42 | 1016.5 |
| 20260509154631 | 66 | 83 | 5.0 | 12.0 | 0.00 | 0.00 | 0.00 | 42 | 1016.3 |
| 20260509154130 | 66 | 73 | 4.0 | 11.0 | 0.00 | 0.00 | 0.00 | 43 | 1015.9 |
| 20260509153632 | 66 | 54 | 4.0 | 12.0 | 0.00 | 0.00 | 0.00 | 42 | 1016.1 |